• In Belarus
  • List of Countries
  • For 7 days
  • Water Temperature
  • Satellite Maps
  • Weather Map
  • Weather Widgets
  • user-avatar
    Login

    Hourly Weather Kyrdzhali

    Today, 20 January, Saturday

    Time Temperature Precipitation Wind Pressure Humidity
    00:00 +3°C° 0 mm 2 mps 724 mmHg 65%
    01:00 +3°C° 0 mm 2 mps 724 mmHg 66%
    02:00 +3°C° 0 mm 2 mps 724 mmHg 64%
    03:00 +3°C° 0 mm 2 mps 724 mmHg 64%
    04:00 +3°C° 0 mm 2 mps 724 mmHg 63%
    05:00 +4°C° 0 mm 1 mps 723 mmHg 63%
    06:00 +3°C° 0 mm 2 mps 723 mmHg 63%
    07:00 +3°C° 0 mm 2 mps 723 mmHg 64%
    08:00 +3°C° 0 mm 2 mps 723 mmHg 64%
    09:00 +4°C° 0 mm 2 mps 723 mmHg 62%
    10:00 +6°C° 0 mm 2 mps 724 mmHg 60%
    11:00 +8°C° 0 mm 3 mps 724 mmHg 58%
    12:00 +9°C° 0 mm 3 mps 723 mmHg 60%
    13:00 +8°C° 0 mm 4 mps 723 mmHg 61%
    14:00 +10°C° 0 mm 4 mps 723 mmHg 62%
    15:00 +8°C° 0 mm 4 mps 722 mmHg 68%
    16:00 +9°C° 0 mm 3 mps 722 mmHg 73%
    17:00 +8°C° 0 mm 3 mps 722 mmHg 79%
    18:00 +7°C° 0 mm 3 mps 722 mmHg 82%
    19:00 +7°C° 0 mm 3 mps 722 mmHg 85%
    20:00 +7°C° 0 mm 3 mps 722 mmHg 88%
    21:00 +5°C° 0.4 mm 3 mps 722 mmHg 87%
    22:00 +5°C° 0.4 mm 3 mps 722 mmHg 87%
    23:00 +5°C° 0.4 mm 3 mps 723 mmHg 86%

    Tomorrow, 21 January, Sunday

    Time Temperature Precipitation Wind Pressure Humidity
    00:00 +5°C° 0.1 mm 2 mps 723 mmHg 86%
    01:00 +5°C° 0.1 mm 1 mps 723 mmHg 86%
    02:00 +5°C° 0.1 mm 1 mps 723 mmHg 86%
    03:00 +5°C° 0 mm 1 mps 723 mmHg 87%
    04:00 +4°C° 0 mm 1 mps 723 mmHg 87%
    05:00 +4°C° 0 mm 1 mps 723 mmHg 87%
    06:00 +4°C° 0 mm 1 mps 722 mmHg 87%
    07:00 +4°C° 0 mm 1 mps 722 mmHg 87%
    08:00 +4°C° 0 mm 1 mps 722 mmHg 87%
    09:00 +5°C° 0.1 mm 1 mps 722 mmHg 85%
    10:00 +5°C° 0.1 mm 2 mps 722 mmHg 84%
    11:00 +6°C° 0.1 mm 2 mps 721 mmHg 82%
    12:00 +6°C° 0.2 mm 2 mps 721 mmHg 84%
    13:00 +7°C° 0.2 mm 2 mps 720 mmHg 86%
    14:00 +7°C° 0.2 mm 2 mps 719 mmHg 88%
    15:00 +7°C° 0.7 mm 2 mps 719 mmHg 90%
    16:00 +7°C° 0.7 mm 2 mps 718 mmHg 92%
    17:00 +6°C° 0.7 mm 2 mps 718 mmHg 95%
    18:00 +6°C° 1.2 mm 2 mps 717 mmHg 95%
    19:00 +6°C° 1.2 mm 2 mps 717 mmHg 96%
    20:00 +6°C° 1.2 mm 2 mps 716 mmHg 96%
    21:00 +6°C° 0.6 mm 2 mps 716 mmHg 96%
    22:00 +7°C° 0.6 mm 1 mps 715 mmHg 96%
    23:00 +7°C° 0.6 mm 1 mps 715 mmHg 96%

    Day after tomorrow, 22 January, Monday

    Time Temperature Precipitation Wind Pressure Humidity
    00:00 +7°C° 0.4 mm 1 mps 715 mmHg 96%
    01:00 +6°C° 0.4 mm 2 mps 714 mmHg 96%
    02:00 +6°C° 0.4 mm 2 mps 714 mmHg 96%
    03:00 +5°C° 1.3 mm 3 mps 714 mmHg 92%
    04:00 +4°C° 1.3 mm 4 mps 714 mmHg 88%
    05:00 +3°C° 1.3 mm 5 mps 714 mmHg 85%
    06:00 +2°C° 0.4 mm 6 mps 714 mmHg 81%
    07:00 +2°C° 0.4 mm 6 mps 715 mmHg 78%
    08:00 +1°C° 0.4 mm 6 mps 715 mmHg 74%
    09:00 +2°C° 0 mm 6 mps 716 mmHg 72%
    10:00 +2°C° 0 mm 7 mps 717 mmHg 69%
    11:00 +2°C° 0 mm 7 mps 718 mmHg 67%
    12:00 +3°C° 0 mm 7 mps 718 mmHg 66%
    13:00 +3°C° 0 mm 7 mps 718 mmHg 65%
    14:00 +3°C° 0 mm 7 mps 718 mmHg 64%
    15:00 +3°C° 0 mm 6 mps 719 mmHg 65%
    16:00 +3°C° 0 mm 6 mps 720 mmHg 67%
    17:00 +2°C° 0 mm 5 mps 721 mmHg 68%
    18:00 +1°C° 0 mm 5 mps 721 mmHg 70%
    19:00 +1°C° 0 mm 5 mps 722 mmHg 72%
    20:00 0°C° 0 mm 5 mps 723 mmHg 74%
    21:00 -1°C° 0 mm 4 mps 724 mmHg 75%
    22:00 -1°C° 0 mm 4 mps 724 mmHg 76%
    23:00 -1°C° 0 mm 4 mps 725 mmHg 77%

    23 January, Tuesday

    Time Temperature Precipitation Wind Pressure Humidity
    00:00 -2°C° 0 mm 4 mps 725 mmHg 78%
    01:00 -1°C° 0 mm 3 mps 725 mmHg 79%
    02:00 -1°C° 0 mm 3 mps 726 mmHg 79%
    03:00 -2°C° 0 mm 3 mps 726 mmHg 79%
    04:00 -2°C° 0 mm 3 mps 726 mmHg 79%
    05:00 -2°C° 0 mm 2 mps 727 mmHg 78%
    06:00 -2°C° 0 mm 2 mps 727 mmHg 78%
    07:00 -2°C° 0 mm 2 mps 728 mmHg 77%
    08:00 -2°C° 0 mm 2 mps 729 mmHg 77%
    09:00 -1°C° 0 mm 2 mps 729 mmHg 71%
    10:00 0°C° 0 mm 3 mps 730 mmHg 66%
    11:00 +2°C° 0 mm 3 mps 730 mmHg 60%
    12:00 +2°C° 0 mm 3 mps 730 mmHg 59%
    13:00 +3°C° 0 mm 3 mps 730 mmHg 58%
    14:00 +3°C° 0 mm 3 mps 730 mmHg 57%
    15:00 +2°C° 0 mm 3 mps 731 mmHg 60%
    16:00 +2°C° 0 mm 3 mps 731 mmHg 64%
    17:00 +1°C° 0 mm 3 mps 731 mmHg 67%
    18:00 0°C° 0 mm 3 mps 732 mmHg 70%
    19:00 -1°C° 0 mm 3 mps 733 mmHg 73%
    20:00 -1°C° 0 mm 3 mps 733 mmHg 75%
    21:00 -2°C° 0 mm 3 mps 734 mmHg 75%
    22:00 -2°C° 0 mm 3 mps 734 mmHg 75%
    23:00 -2°C° 0 mm 2 mps 735 mmHg 75%

    24 January, Wednesday

    Time Temperature Precipitation Wind Pressure Humidity
    00:00 -3°C° 0 mm 2 mps 735 mmHg 73%
    01:00 -3°C° 0 mm 2 mps 735 mmHg 72%
    02:00 -3°C° 0 mm 2 mps 736 mmHg 70%
    03:00 -3°C° 0 mm 2 mps 736 mmHg 70%
    04:00 -3°C° 0 mm 2 mps 736 mmHg 69%
    05:00 -3°C° 0 mm 2 mps 736 mmHg 68%
    06:00 -3°C° 0 mm 2 mps 736 mmHg 68%
    07:00 -3°C° 0 mm 2 mps 737 mmHg 68%
    08:00 -3°C° 0 mm 2 mps 737 mmHg 68%
    09:00 -2°C° 0 mm 3 mps 738 mmHg 61%
    10:00 -1°C° 0 mm 3 mps 738 mmHg 55%
    11:00 -1°C° 0 mm 4 mps 738 mmHg 49%
    12:00 0°C° 0 mm 4 mps 738 mmHg 47%
    13:00 0°C° 0 mm 4 mps 738 mmHg 44%
    14:00 +1°C° 0 mm 4 mps 738 mmHg 42%
    15:00 +1°C° 0 mm 3 mps 737 mmHg 46%
    16:00 0°C° 0 mm 3 mps 737 mmHg 50%
    17:00 +1°C° 0 mm 2 mps 737 mmHg 53%
    18:00 -1°C° 0 mm 2 mps 737 mmHg 55%
    19:00 -2°C° 0 mm 2 mps 738 mmHg 56%
    20:00 -3°C° 0 mm 2 mps 738 mmHg 58%
    21:00 -3°C° 0 mm 2 mps 738 mmHg 58%
    22:00 -1°C° 0 mm 1 mps 738 mmHg 58%
    23:00 -1°C° 0 mm 1 mps 738 mmHg 57%

    25 January, Thursday

    Time Temperature Precipitation Wind Pressure Humidity
    00:00 -1°C° 0 mm 1 mps 738 mmHg 58%
    01:00 -1°C° 0 mm 1 mps 738 mmHg 58%
    02:00 -2°C° 0 mm 1 mps 737 mmHg 58%
    03:00 -2°C° 0 mm 1 mps 737 mmHg 58%
    04:00 -4°C° 0 mm 2 mps 737 mmHg 58%
    05:00 -4°C° 0 mm 2 mps 736 mmHg 58%
    06:00 -4°C° 0 mm 2 mps 736 mmHg 57%
    07:00 -4°C° 0 mm 2 mps 736 mmHg 56%
    08:00 -4°C° 0 mm 2 mps 736 mmHg 56%
    09:00 -2°C° 0 mm 3 mps 736 mmHg 49%
    10:00 -1°C° 0 mm 3 mps 736 mmHg 42%
    11:00 0°C° 0 mm 4 mps 736 mmHg 35%
    12:00 0°C° 0 mm 5 mps 735 mmHg 35%
    13:00 +1°C° 0 mm 5 mps 735 mmHg 34%
    14:00 +1°C° 0 mm 6 mps 734 mmHg 33%
    15:00 0°C° 0 mm 5 mps 734 mmHg 38%
    16:00 -1°C° 0 mm 5 mps 734 mmHg 43%
    17:00 -2°C° 0 mm 4 mps 734 mmHg 47%
    18:00 -3°C° 0 mm 4 mps 734 mmHg 52%
    19:00 -4°C° 0 mm 3 mps 734 mmHg 57%
    20:00 -5°C° 0 mm 3 mps 735 mmHg 62%
    21:00 -5°C° 0 mm 3 mps 735 mmHg 62%
    22:00 -5°C° 0 mm 3 mps 735 mmHg 63%
    23:00 -5°C° 0 mm 3 mps 735 mmHg 64%
    Show more